Find Starlink 30590

NORAD ID: 58090 Int'l Des: 2023-160 Owner: SPXS Country: US Constellation: starlink operational
LEOCIRCULAR

当前视图

正在加载3D地球...

关于 Starlink 30590

正在加载描述...

即将过境

Passes for default location (London). Set your location on the main map for personalized predictions.

高度历史

Loading altitude history...

两行轨道根数

1 58090U 23160R 26158.66476935 -.00005215 00000-0 -18032-3 0 9994
2 58090 43.0001 293.3738 0000703 227.3055 132.7738 15.27543735146667
Epoch: Jun 7, 2026 • Age: 31 hours

当前状态

高度 486.0 km
速度 7.62 km/s
星下点 -14.25°S, 24.21°E
发射日期 Oct 18, 2023
运行时间 2.6 years
类型 internet

技术详情

分类 Payload
质量 730.00 kg
干质量 700.00 kg
总质量 730.00 kg
长度 0.30 m
直径 4.10 m
跨度 29.00 m
形状 Box + pan
制造商 SPXS
平台类型 Starlink V2M
阶段状态 In Orbit
所有者/国家 SPXS/US

Most Searched